Winner, SD

10:34 PM CST on November 21, 2019 (GMT -0600)
Winner

Weather History for KICR - October, 2019

Change the Weather History Date:

Wednesday, October 23, 2019

  Actual Average Record
Temperature  
Mean Temperature 39 °F 48 °F  
Max Temperature 48 °F 59 °F 77 °F (2012)
Min Temperature 29 °F 36 °F 30 °F (2018)
Degree Days  
Heating Degree Days 26 17  
Month to date heating degree days 399 302  
Since 1 July heating degree days 453 444  
Cooling Degree Days 0 0  
Month to date cooling degree days 0 9  
Year to date cooling degree days 865 915  
Moisture  
Dew Point 33 °F    
Average Humidity 81    
Maximum Humidity 89    
Minimum Humidity 60    
Precipitation  
Precipitation 0.02 in 0.05 in 0.20 in (2015)
Month to date precipitation 0.82 1.31  
Year to date precipitation 24.32 20.30  
Sea Level Pressure  
Sea Level Pressure 30.03 in    
Wind  
Wind Speed 10 mph ()    
Max Wind Speed 24 mph    
Max Gust Speed 32 mph    
Visibility 8.3 miles    
Events Rain , Snow    
T = Trace of Precipitation, MM = Missing Value Source: Averaged Metar Reports

Daily Weather History Graph

Daily Weather History Graph

Search for Another Location

Airport or City:

Astronomy

Oct. 23, 2019 Rise Set
Actual Time 8:02 AM CDT 6:43 PM CDT
Civil Twilight 7:33 AM CDT 7:12 PM CDT
Nautical Twilight 7:00 AM CDT 7:46 PM CDT
Astronomical Twilight 6:27 AM CDT 8:19 PM CDT
Moon 2:10 AM CDT (10/23) 4:46 PM CDT (10/23)
Length of Visible Light 11h 39m
Length of Day
10h 40m
Waning Crescent, 26% of the Moon is Illuminated
Oct 23
Waning Crescent
Oct 27
New
Nov 4
First Quarter
Nov 12
Full
Nov 19
Last Quarter

Hourly Weather History & Observations

Time (CDT) Temp. Windchill Dew Point Humidity Pressure Visibility Wind Dir Wind Speed Gust Speed Precip Events Conditions
12:53 AM 46.0 °F 41.9 °F 34.0 °F 63% 29.75 in 10.0 mi SSW 8.1 mph - 0.00 in   Overcast
1:53 AM 44.1 °F 40.8 °F 35.1 °F 71% 29.76 in 10.0 mi WSW 5.8 mph - N/A   Overcast
2:53 AM 42.1 °F 39.2 °F 35.1 °F 76% 29.75 in 10.0 mi South 4.6 mph - N/A   Partly Cloudy
3:53 AM 42.1 °F 39.2 °F 37.0 °F 82% 29.77 in 10.0 mi WSW 4.6 mph - 0.00 in Rain Light Rain
4:53 AM 45.0 °F 41.8 °F 39.0 °F 80% 29.73 in 10.0 mi SW 5.8 mph - 0.00 in   Overcast
5:53 AM 42.1 °F 39.2 °F 37.9 °F 85% 29.78 in 10.0 mi NW 4.6 mph - N/A   Overcast
6:53 AM 42.1 °F 39.2 °F 37.9 °F 85% 29.81 in 10.0 mi NW 4.6 mph - 0.00 in   Overcast
7:11 AM 42.1 °F 37.1 °F 37.9 °F 85% 29.81 in 10.0 mi West 8.1 mph - N/A   Mostly Cloudy
7:37 AM 42.1 °F 36.1 °F 37.9 °F 85% 29.83 in 10.0 mi WNW 10.4 mph - N/A   Overcast
7:53 AM 41.0 °F 37.1 °F 37.9 °F 89% 29.86 in 10.0 mi WNW 5.8 mph - N/A   Overcast
8:53 AM 42.1 °F 39.2 °F 37.9 °F 85% 29.88 in 10.0 mi West 4.6 mph - N/A   Mostly Cloudy
9:53 AM 44.1 °F 41.5 °F 39.0 °F 82% 29.90 in 10.0 mi West 4.6 mph - N/A   Overcast
10:53 AM 48.0 °F - 39.0 °F 71% 29.90 in 10.0 mi West 11.5 mph - N/A   Overcast
11:53 AM 46.9 °F - 39.9 °F 77% 29.92 in 10.0 mi WNW 19.6 mph 29.9 mph 0.01 in   Overcast
12:18 PM 46.9 °F - 39.0 °F 74% 29.91 in 10.0 mi NW 19.6 mph 27.6 mph N/A   Overcast
12:53 PM 43.0 °F 34.2 °F 37.9 °F 82% 29.96 in 10.0 mi NNE 20.7 mph 27.6 mph 0.00 in Rain Light Rain
12:55 PM 43.0 °F 34.8 °F 37.9 °F 82% 29.94 in 10.0 mi North 18.4 mph - 0.00 in   Overcast
1:04 PM 42.1 °F 33.3 °F 37.0 °F 82% 29.94 in 10.0 mi NNE 19.6 mph 31.1 mph 0.00 in   Overcast
1:53 PM 36.0 °F 25.6 °F 32.0 °F 86% 30.04 in 6.0 mi NNE 18.4 mph - 0.00 in Snow Light Snow
2:02 PM 36.0 °F 25.0 °F 32.0 °F 86% 30.01 in 2.5 mi North 20.7 mph 27.6 mph 0.00 in Snow Light Snow
2:20 PM 36.0 °F 26.3 °F 32.0 °F 86% 30.03 in 4.0 mi North 16.1 mph 27.6 mph 0.00 in Snow Light Snow
2:33 PM 36.0 °F 26.0 °F 32.0 °F 86% 30.03 in 2.5 mi North 17.3 mph 23.0 mph 0.00 in Snow Light Snow
2:45 PM 36.0 °F 26.0 °F 32.0 °F 86% 30.04 in 2.5 mi North 17.3 mph 25.3 mph 0.00 in Snow Light Snow
2:52 PM 35.1 °F 25.5 °F 32.0 °F 89% 30.09 in 1.8 mi North 15.0 mph 25.3 mph 0.00 in Snow Light Snow
3:29 PM 34.0 °F 23.8 °F 30.0 °F 85% 30.09 in 1.5 mi NNW 16.1 mph 28.8 mph 0.01 in Snow Light Snow
3:34 PM 34.0 °F 23.4 °F 30.9 °F 89% 30.09 in 2.5 mi North 17.3 mph 28.8 mph 0.01 in Snow Light Snow
3:49 PM 35.6 °F 24.8 °F 30.2 °F 81% 30.10 in 4.0 mi NNW 19.6 mph 26.5 mph 0.01 in Snow Light Snow
3:53 PM 35.1 °F 25.5 °F 30.9 °F 85% 30.15 in 5.0 mi NNW 15.0 mph 26.5 mph 0.01 in Snow Light Snow
4:15 PM 36.0 °F 26.7 °F 30.9 °F 82% 30.12 in 10.0 mi NNW 15.0 mph - 0.00 in   Overcast
4:53 PM 36.0 °F 27.5 °F 32.0 °F 86% 30.19 in 9.0 mi NW 12.7 mph - 0.00 in   Overcast
5:00 PM 36.0 °F 27.5 °F 32.0 °F 86% 30.15 in 10.0 mi NW 12.7 mph - 0.00 in Rain Light Rain
5:08 PM 36.0 °F 27.1 °F 32.0 °F 86% 30.16 in 9.0 mi NW 13.8 mph - 0.00 in Snow Light Snow
5:22 PM 37.0 °F 27.4 °F 32.0 °F 82% 30.17 in 9.0 mi NNW 17.3 mph - 0.00 in   Overcast
5:31 PM 37.0 °F 28.1 °F 30.9 °F 79% 30.17 in 10.0 mi NW 15.0 mph 24.2 mph 0.00 in   Overcast
5:53 PM 36.0 °F 26.3 °F 30.0 °F 79% 30.23 in 10.0 mi NW 16.1 mph 26.5 mph 0.00 in   Overcast
6:07 PM 36.0 °F 26.3 °F 30.0 °F 79% 30.19 in 10.0 mi NW 16.1 mph 24.2 mph N/A   Overcast
6:53 PM 36.0 °F 26.7 °F 28.0 °F 73% 30.27 in 10.0 mi NW 15.0 mph - N/A   Overcast
7:53 PM 35.1 °F 25.9 °F 26.1 °F 70% 30.32 in 10.0 mi NW 13.8 mph - N/A   Overcast
8:53 PM 35.1 °F 27.4 °F 25.0 °F 67% 30.34 in 10.0 mi NW 10.4 mph - N/A   Overcast
9:53 PM 34.0 °F 26.0 °F 25.0 °F 70% 30.34 in 10.0 mi WNW 10.4 mph - N/A   Overcast
10:53 PM 33.1 °F 24.9 °F 25.0 °F 72% 30.35 in 10.0 mi WNW 10.4 mph - N/A   Overcast
11:53 PM 30.9 °F 22.8 °F 24.1 °F 76% 30.36 in 10.0 mi WNW 9.2 mph - N/A   Clear